Tracking 19794 objects as of 22-Jul-2019
HD Live streaming from Space Station
objects crossing your sky now

WESTFORD NEEDLES

Track WESTFORD NEEDLES now!
10-day predictions
WESTFORD NEEDLES is classified as:


NORAD ID: 18688
Int'l Code: 1963-014DM
Perigee: 3,615.0 km
Apogee: 3,690.3 km
Inclination: 87.3 °
Period: 166.5 minutes
Semi major axis: 10023 km
RCS: 0.0937 m2 (small)
Launch date: May 9, 1963
Source: United States (US)
Launch site: AIR FORCE WESTERN TEST RANGE (AFWTR)
aabbcc
Your satellite tracking list
Your tracking list is empty




NASA's NSSDC Master Catalog

Two Line Element Set (TLE):
1 18688U 63014DM  19202.35828582 -.00000022 +00000-0 -11515-1 0  9990
2 18688 087.3302 082.4491 0037574 137.9872 355.7432 08.65098522901146
Source of the keplerian elements: AFSPC